Location: Keppel Henge
(44.7900°N, 80.9447°W)
Time: 19:00:22
(UTC-04:00)

Tiangong 2 - Pass Details

Date: 12 October 2017
Orbit: 388 x 391 km, 42.8° (Epoch: 21 October)

Event Time Altitude Azimuth Distance (km) Brightness Sun altitude
Exits shadow 05:16:12 20° 115° (ESE) 968 3.6 -25.4°
Drops below altitude 10° 05:17:36 10° 97° (E) 1,421 4.8 -25.1°
Sets 05:19:49 0° 86° (E) 2,280 6.3 -24.7°
